Dewpoint
72 72 70 69 57 53 48 49 51 52 52 54 55 54 55 58 55 49 65 65 66 69 72 72 75 75 75 76 76 76 75 76 76 76 76 75 76 76 75 75 74 74 74 74 74 74 74 74 74
69 69 71 67 51 44 49 50 50 52 55 56 57 57 57 57 61 63 63 65 66 70 71 72 75 75 75 76 75 76 75 76 76 76 74 75 75 75 74 74 75 75 73 74 74 74 74 74 74
69 71 66 59 51 44 47 50 52 55 55 55 57 59 58 58 61 61 64 66 67 70 71 72 74 75 75 76 76 76 76 76 76 75 75 74 74 73 72 72 72 73 73 74 74 74 74 73 72
70 69 66 53 46 49 50 53 54 54 55 56 57 58 59 61 61 64 65 65 67 70 71 73 74 74 75 76 76 76 76 76 76 74 74 74 74 73 73 72 72 71 71 71 72 72 72 71 70
69 64 54 48 49 52 53 54 53 53 55 56 57 57 60 64 65 65 65 65 67 70 71 72 75 74 75 76 76 76 76 76 75 74 74 75 75 76 74 73 72 71 70 70 70 71 70 69 70
62 60 49 47 50 52 53 54 55 56 57 57 57 58 62 65 65 65 65 65 65 68 71 71 74 74 75 76 76 76 76 75 75 75 75 75 75 75 75 74 73 72 72 71 71 70 70 70 71
58 57 52 51 50 51 52 55 54 54 55 56 58 57 62 63 66 67 67 67 67 68 70 72 72 73 75 76 75 76 76 75 75 75 75 75 75 75 75 75 74 73 73 72 72 71 71 71 72
63 60 51 51 50 50 54 55 56 53 55 58 58 56 59 63 67 67 68 69 69 69 69 72 73 72 75 74 76 76 76 75 74 74 74 75 74 75 75 73 76 74 73 71 70 70 71 72 72
65 54 50 50 51 52 55 54 55 57 55 58 60 58 60 65 66 65 66 67 69 70 71 72 71 73 76 74 74 75 74 75 75 74 74 71 70 70 71 75 75 74 75 74 73 73 73 73 72
60 53 48 50 54 53 54 53 55 54 55 59 61 62 64 65 65 63 63 64 66 67 69 73 70 72 73 71 76 74 74 73 74 74 74 70 73 74 71 72 72 71 72 72 74 76 76 74 68
60 57 59 54 54 55 54 54 55 52 53 57 59 62 64 65 65 63 63 65 67 67 68 70 69 72 71 73 72 72 72 72 72 75 75 74 73 72 69 69 68 71 72 70 72 72 70 71 69
58 60 60 55 56 54 54 55 54 54 54 58 60 62 64 64 63 62 64 66 67 68 67 68 70 71 71 71 70 72 72 72 71 73 75 74 71 72 72 71 70 71 70 71 71 69 72 71 72
56 56 54 55 55 55 56 55 54 58 60 60 61 63 63 63 63 62 63 64 67 68 68 69 70 71 71 71 71 73 72 72 73 74 75 73 72 73 71 70 70 70 70 69 70 71 71 72 71
60 56 56 56 56 56 56 55 54 59 61 61 61 62 62 63 63 62 63 63 64 66 67 68 69 70 70 70 72 72 72 73 74 74 74 73 72 74 71 70 70 70 71 70 69 72 72 71 70
60 55 55 55 56 55 55 53 54 59 60 60 61 62 63 63 63 62 62 63 64 65 66 67 68 69 70 71 70 70 71 70 72 73 75 74 74 74 74 70 70 70 73 72 72 73 71 69 69
54 55 51 54 53 55 52 51 56 59 58 60 61 61 62 63 63 64 63 63 65 64 66 67 65 66 68 69 70 69 70 71 72 72 72 73 73 74 73 70 69 72 71 70 70 71 69 69 68
52 50 52 54 54 52 52 53 56 58 57 58 60 61 61 62 63 64 64 64 64 65 67 67 68 67 68 70 69 71 71 71 72 72 71 73 72 72 73 70 70 73 70 70 69 69 71 69 68
49 48 51 52 55 53 52 52 55 57 56 57 59 60 61 61 61 63 64 65 65 65 67 68 68 69 71 70 70 69 69 70 71 72 72 72 71 72 72 70 72 72 70 69 71 72 71 70 69
49 47 43 51 56 55 52 53 54 55 56 56 57 59 59 60 61 62 63 64 66 66 67 68 68 71 70 68 67 69 68 69 70 72 73 74 73 72 73 69 71 72 71 72 73 71 71 67 69
45 41 38 46 55 55 55 54 54 54 54 54 55 56 58 58 60 61 62 63 65 66 68 69 69 71 71 69 70 70 71 70 70 71 73 74 74 73 72 73 71 72 69 72 74 74 69 67 70
22 29 38 44 55 51 54 52 53 54 54 55 55 56 56 56 57 59 61 63 63 65 68 69 70 71 71 72 71 71 71 71 69 69 70 71 73 73 73 73 73 73 73 68 72 73 73 67 68
17 13 28 52 51 44 37 33 40 52 53 54 56 56 56 56 57 58 60 61 62 64 67 69 71 72 72 73 72 72 69 68 68 70 69 71 72 72 72 73 73 74 71 72 70 70 72 73 67
15 13 23 41 30 20 22 38 39 51 49 52 54 57 58 57 56 56 58 61 62 64 65 67 70 71 72 72 73 71 71 69 69 69 71 72 73 72 71 72 73 73 72 72 73 73 73 69 69
16 15 16 13 9 12 17 18 23 47 50 56 56 54 58 59 58 58 60 63 65 65 65 66 69 71 72 71 72 72 71 71 69 69 69 68 68 69 72 72 74 74 73 73 73 74 74 73 71
12 9 15 13 11 16 37 15 42 49 59 60 60 58 59 60 60 62 62 63 65 65 66 67 69 70 70 70 70 71 71 71 71 71 68 69 67 67 72 73 74 71 74 74 74 74 74 73 72
13 10 12 15 8 14 45 39 43 57 61 60 59 58 59 61 62 63 64 65 65 66 67 68 69 69 71 71 71 72 72 70 70 71 71 70 69 69 74 72 72 72 73 72 74 72 72 73 72
17 15 13 12 23 36 43 44 42 47 52 59 59 59 60 62 62 64 65 65 66 67 69 69 69 70 70 70 72 71 72 73 73 72 72 69 71 70 72 73 72 72 72 73 74 71 72 73 73
15 13 8 16 29 30 35 36 39 41 45 54 58 60 61 63 63 65 65 65 65 66 66 64 64 65 64 61 62 62 63 66 66 67 68 67 68 72 75 74 73 73 73 73 74 72 73 73 71
17 17 15 13 34 33 33 34 41 42 45 53 57 59 60 63 63 62 62 61 60 59 60 58 58 60 60 62 64 64 62 62 62 62 63 64 65 67 68 72 73 73 73 73 73 74 73 72 73
22 20 17 13 23 31 33 31 40 41 49 54 54 53 52 51 52 53 55 56 57 57 56 53 54 55 57 59 61 61 61 62 61 61 61 63 64 65 65 66 69 73 73 74 73 73 72 72 72
Lifted_Index
-4 -4 -4 -3 -2 -0 0 1 1 1 1 1 1 0 0 -0 -0 0 1 1 -0 -1 -3 -3 -4 -4 -4 -5 -5 -5 -5 -5 -5 -5 -5 -5 -5 -4 -4 -4 -4 -4 -4 -4 -4 -4 -4 -4 -4
-4 -4 -4 -3 -1 -0 0 0 1 1 1 1 0 0 -0 -0 0 0 0 0 -0 -2 -3 -3 -4 -4 -5 -5 -5 -5 -5 -5 -6 -5 -5 -4 -4 -4 -3 -3 -3 -3 -3 -4 -4 -4 -4 -4 -4
-4 -4 -4 -2 -1 0 0 0 0 0 0 0 -0 -0 0 1 0 0 0 -0 -1 -2 -3 -3 -4 -4 -5 -5 -6 -6 -6 -6 -6 -5 -5 -4 -4 -3 -3 -3 -3 -3 -3 -3 -4 -4 -3 -3 -3
-4 -4 -3 -1 -0 -0 -0 0 0 0 0 0 -0 0 1 1 1 0 0 -0 -1 -3 -3 -4 -4 -5 -5 -6 -6 -6 -6 -6 -5 -5 -4 -4 -4 -4 -3 -3 -2 -2 -2 -2 -3 -3 -3 -2 -2
-3 -3 -1 -1 -1 -0 -0 0 0 0 0 0 0 0 0 1 1 0 -0 -0 -1 -3 -3 -4 -4 -5 -5 -6 -6 -6 -6 -6 -5 -5 -5 -5 -5 -5 -4 -4 -3 -2 -2 -2 -2 -2 -2 -1 -1
-2 -1 -0 -0 -1 -0 -0 -0 0 0 0 0 0 -0 -0 -0 -0 -0 -1 -1 -1 -2 -3 -4 -4 -5 -5 -6 -6 -6 -6 -6 -5 -5 -5 -5 -5 -5 -5 -5 -4 -3 -3 -2 -2 -2 -2 -1 -1
-1 -1 -0 -0 -0 -0 0 0 0 0 0 0 0 0 -1 -1 -1 -1 -1 -2 -2 -2 -3 -4 -4 -5 -5 -6 -7 -7 -6 -6 -5 -5 -5 -6 -6 -6 -6 -5 -5 -4 -4 -3 -3 -2 -2 -2 -2
-1 -1 -0 -0 -0 -0 0 0 1 1 1 0 0 1 -0 -1 -2 -2 -2 -2 -2 -3 -3 -4 -4 -4 -5 -6 -6 -6 -6 -6 -5 -5 -5 -5 -5 -6 -6 -6 -6 -5 -5 -4 -4 -3 -3 -3 -3
-1 -0 0 -0 -0 -0 0 1 1 1 1 0 0 1 0 -1 -1 -1 -2 -2 -2 -3 -3 -4 -4 -4 -5 -6 -6 -6 -6 -5 -5 -5 -5 -5 -5 -5 -5 -5 -5 -5 -5 -5 -4 -4 -4 -4 -4
-0 -0 -0 -0 -0 -0 0 1 1 1 1 0 -0 -0 -0 -1 -1 -1 -1 -1 -2 -2 -3 -4 -4 -4 -4 -5 -5 -5 -5 -5 -5 -5 -5 -5 -5 -5 -5 -5 -4 -4 -4 -5 -5 -5 -6 -5 -5
-1 -1 -1 -1 -0 -0 0 1 1 2 1 1 0 -0 -1 -1 -1 -1 -1 -1 -2 -2 -3 -3 -3 -3 -4 -4 -4 -4 -4 -4 -5 -5 -5 -5 -5 -5 -5 -4 -4 -4 -4 -4 -5 -6 -6 -6 -6
-2 -2 -1 -1 -0 0 0 1 1 1 1 0 0 -0 -0 -1 -1 -1 -1 -1 -2 -2 -2 -3 -3 -3 -3 -3 -3 -4 -4 -4 -4 -5 -5 -5 -5 -5 -5 -5 -4 -4 -4 -5 -5 -5 -6 -6 -6
-2 -1 -1 -0 0 0 0 1 1 1 0 0 -0 -0 -0 -0 -0 -0 -0 -1 -1 -1 -2 -2 -2 -3 -2 -2 -3 -3 -4 -4 -5 -5 -5 -5 -5 -5 -5 -5 -5 -5 -5 -5 -5 -6 -6 -7 -7
-2 -2 -1 -0 -0 0 0 1 1 0 0 -0 -0 -0 -0 0 0 0 0 0 -0 -0 -1 -1 -1 -1 -1 -1 -2 -3 -4 -4 -5 -5 -5 -5 -5 -5 -5 -5 -5 -5 -5 -5 -5 -6 -6 -6 -6
-2 -2 -1 -1 -0 0 0 0 1 0 0 -0 -1 -1 -1 -0 -0 -0 0 0 0 0 -0 -0 -0 -0 -1 -1 -1 -2 -3 -3 -4 -5 -5 -5 -5 -5 -5 -5 -5 -5 -5 -5 -5 -6 -6 -6 -6
-2 -2 -2 -1 -1 -0 0 0 0 0 0 -0 -1 -1 -1 -1 -1 -0 -0 0 0 1 0 0 0 0 -0 -0 -1 -1 -2 -3 -4 -4 -5 -5 -5 -5 -5 -5 -5 -5 -5 -5 -5 -6 -6 -6 -6
-1 -1 -2 -2 -1 -1 -0 -0 -0 0 0 0 -0 -0 -1 -1 -1 -1 -0 -0 0 0 0 0 -0 -0 -0 -1 -1 -1 -2 -3 -4 -4 -4 -4 -4 -5 -5 -5 -5 -5 -5 -5 -5 -6 -6 -6 -6
-1 -1 -1 -2 -2 -2 -1 -1 -1 -0 0 0 0 0 -0 -0 -1 -1 -1 -0 -0 0 0 -0 -0 -1 -1 -1 -1 -1 -2 -3 -3 -4 -4 -4 -4 -4 -4 -4 -5 -5 -5 -5 -5 -5 -6 -6 -6
-1 -0 -1 -1 -2 -2 -2 -2 -1 -0 0 0 1 1 1 0 0 -0 -0 -0 -0 -0 -0 -0 -1 -1 -2 -2 -2 -2 -2 -3 -3 -4 -4 -4 -4 -4 -4 -4 -4 -4 -5 -5 -5 -5 -5 -5 -5
-0 0 -0 -1 -2 -3 -3 -3 -2 -1 -0 0 0 1 1 1 0 0 0 -0 -0 -1 -1 -1 -1 -2 -2 -2 -2 -3 -3 -3 -3 -3 -4 -4 -4 -4 -4 -4 -4 -4 -4 -5 -5 -5 -5 -5 -5
0 0 -0 -2 -3 -3 -3 -2 -2 -1 -1 -1 -0 -0 0 0 0 0 0 0 -0 -1 -1 -2 -2 -2 -3 -3 -3 -3 -3 -3 -3 -3 -3 -3 -3 -3 -4 -4 -4 -4 -4 -4 -5 -5 -5 -5 -5
1 1 0 -2 -2 -2 -1 -1 -0 -1 -1 -1 -1 -1 -0 -0 0 0 0 0 -0 -1 -2 -2 -2 -3 -3 -3 -3 -3 -3 -3 -3 -3 -3 -3 -3 -3 -3 -3 -4 -4 -4 -4 -4 -4 -5 -5 -5
3 3 2 1 -0 0 1 1 1 -0 -1 -1 -1 -1 -1 -0 -0 0 -0 -0 -1 -1 -2 -2 -2 -3 -3 -3 -3 -3 -3 -3 -3 -3 -3 -3 -3 -3 -3 -3 -3 -4 -4 -4 -4 -4 -4 -4 -4
4 4 3 3 2 2 3 3 2 0 -1 -2 -2 -1 -1 -1 -1 -1 -1 -1 -1 -2 -2 -2 -2 -2 -2 -3 -3 -3 -3 -3 -3 -3 -3 -3 -3 -3 -3 -3 -4 -4 -4 -4 -4 -4 -4 -4 -4
4 3 2 2 2 3 3 4 3 1 -1 -2 -2 -2 -1 -1 -2 -2 -2 -2 -2 -2 -2 -2 -2 -2 -2 -3 -3 -3 -3 -3 -4 -4 -4 -4 -4 -4 -4 -4 -4 -4 -4 -4 -4 -4 -4 -4 -4
4 3 2 2 2 2 3 3 3 1 -1 -2 -2 -2 -2 -2 -2 -3 -3 -3 -3 -3 -3 -3 -3 -2 -2 -3 -3 -3 -4 -4 -4 -4 -4 -4 -4 -4 -4 -4 -4 -4 -4 -4 -4 -4 -4 -4 -4
3 3 2 2 2 2 2 3 2 1 -1 -2 -2 -2 -2 -2 -3 -3 -3 -3 -3 -3 -3 -3 -2 -2 -2 -2 -2 -2 -2 -3 -3 -3 -3 -3 -4 -5 -5 -5 -5 -4 -5 -5 -4 -4 -4 -4 -4
3 3 3 3 2 1 2 3 2 1 -1 -2 -2 -2 -2 -2 -3 -3 -3 -2 -2 -2 -2 -1 -0 0 0 0 1 1 0 -0 -1 -1 -1 -1 -2 -3 -5 -5 -5 -5 -5 -5 -5 -5 -4 -4 -4
3 3 3 3 2 2 2 3 2 -0 -2 -2 -2 -2 -2 -2 -2 -2 -2 -2 -2 -1 0 2 3 2 2 2 2 2 2 2 2 1 1 1 0 -1 -2 -4 -5 -5 -5 -5 -5 -5 -5 -5 -5
3 3 3 2 2 2 3 3 1 -0 -2 -2 -3 -3 -3 -2 -2 -2 -2 -2 -2 -1 1 3 3 3 3 3 3 3 2 2 2 2 2 2 1 1 -0 -2 -3 -5 -5 -5 -5 -5 -5 -5 -5